User: anonymous   Login
Location: Unspecified
(0.0000°N, 0.0000°E)
Time: 09:14:43
(UTC+00:00)
Language:

ELEKTRO-L - Orbit

View from above orbital plane
View from above orbital plane
View from above satellite
View from above satellite

Ground track
Ground track

The orbit data is extracted from the following two-line orbital elements,

1 37344U 11001A   15185.95309819 -.00000109  00000-0  10000-3 0  9993
2 37344 001.0121 081.0357 0002866 312.0300 308.8708 01.00273609 16350
Epoch (UTC): 04 July 2015 22:52:27
Eccentricity: 0.0002866
inclination: 1.0121°
perigee height: 35773 km
apogee height: 35798 km
right ascension of ascending node: 81.0357°
argument of perigee: 312.0300°
revolutions per day: 1.00273609
mean anomaly at epoch: 308.8708°
orbit number at epoch: 1635

The dashed part of the orbit path shows where the satellite is in the earth's shadow,  

DLR